Date_and_time,latitude,longitude,wind_speed,RelWindDirFrom,WindDirFrom,air_pressure,air_temperature,relative_humidity,Temp,platform_speed_wrt_ground,air_pressure_at_mean_sea_level,platform_orientation
2018-04-12 23:50,50.6304116666667,-96.980775,16.8,19.3,27,988.05,-3.4,56,2.83,0.0,1016.23,360.0
2018-04-13 00:00,50.6304366666667,-96.9807566666667,16.5,20.2,28,988.10,-3.6,58,2.84,0.0,1016.29,78.4
2018-04-13 00:10,50.6304433333333,-96.98074,16.3,18.9,26,988.11,-3.7,57,2.85,0.0,1016.31,78.4
2018-04-13 00:20,50.6304283333333,-96.98075,15.4,17.4,27,988.30,-3.8,58,2.85,0.0,1016.51,78.4
2018-04-13 00:30,50.6304316666667,-96.9807533333333,13.8,16.4,25,988.50,-3.9,60,2.86,0.0,1016.72,78.4
2018-04-13 00:40,50.6304333333333,-96.98075,13.1,16.1,21,988.61,-4.1,61,2.88,0.0,1016.86,78.4
2018-04-13 00:50,50.6304333333333,-96.98075,13.8,16.2,18,988.53,-4.2,59,2.88,0.0,1016.78,78.4
2018-04-13 01:00,50.630435,-96.9807483333333,13.4,15.3,20,988.53,-4.6,62,2.88,0.0,1016.81,38.0
2018-04-13 01:10,50.6304366666667,-96.9807466666667,14.7,17.4,13,988.47,-4.9,61,2.88,0.0,1016.77,38.0
2018-04-13 01:20,50.6304366666667,-96.9807483333333,15.8,19.0,11,988.50,-5.5,57,2.89,0.0,1016.84,38.0
2018-04-13 01:30,50.630465,-96.980775,15.5,18.9,8,988.55,-5.7,57,2.90,0.0,1016.91,38.0
2018-04-13 01:40,50.630445,-96.9807633333333,14.2,17.3,11,988.87,-5.9,59,2.91,0.0,1017.25,38.0
2018-04-13 01:50,50.6304433333333,-96.9807566666667,15.7,18.8,12,988.86,-6.1,57,2.91,0.0,1017.26,38.0
2018-04-13 02:00,50.6304466666667,-96.9807483333333,15.0,17.7,15,989.06,-6.3,61,2.92,0.0,1017.49,360.0
2018-04-13 02:10,50.6304466666667,-96.9807583333333,13.7,16.9,8,989.29,-6.4,57,2.92,0.0,1017.73,360.0
2018-04-13 02:20,50.6304466666667,-96.9807483333333,11.8,15.5,6,989.58,-6.6,58,2.93,0.0,1018.05,360.0
2018-04-13 02:30,50.6304466666667,-96.9807566666667,9.2,12.0,1,989.88,-6.6,59,2.93,0.0,1018.36,360.0
2018-04-13 02:40,50.630445,-96.98076,8.8,10.5,359,990.07,-6.7,61,2.93,0.0,1018.57,360.0
2018-04-13 02:50,50.6304366666667,-96.980765,7.6,9.6,357,990.34,-6.8,62,2.93,0.0,1018.87,360.0
2018-04-13 03:00,50.6304433333333,-96.9807616666667,6.6,8.5,354,990.58,-6.8,58,2.94,0.0,1019.14,38.0
2018-04-13 03:10,50.6304483333333,-96.98076,8.6,11.3,350,990.75,-6.8,49,2.93,0.0,1019.35,38.0
2018-04-13 03:20,50.630445,-96.9807633333333,9.4,12.0,351,990.88,-6.9,46,2.92,0.0,1019.50,38.0
2018-04-13 03:30,50.6304416666667,-96.98076,9.0,11.7,348,991.03,-6.9,44,2.92,0.0,1019.66,38.0
2018-04-13 03:40,50.63044,-96.98076,7.9,10.0,348,991.09,-7.1,45,2.92,0.0,1019.75,38.0
2018-04-13 03:50,50.63044,-96.9807583333333,8.9,11.3,348,991.09,-7.4,45,2.92,0.0,1019.77,38.0
2018-04-13 04:00,50.63044,-96.98076,8.1,11.6,350,991.17,-7.5,45,2.91,0.0,1019.87,347.4
2018-04-13 04:10,50.6304466666667,-96.980755,8.1,11.5,342,991.20,-7.7,44,2.91,0.0,1019.92,347.4
2018-04-13 04:20,50.6304516666667,-96.98078,8.7,13.0,343,991.17,-7.9,44,2.90,0.0,1019.89,347.4
2018-04-13 04:30,50.6304383333333,-96.9807666666667,8.2,13.4,340,991.35,-7.9,43,2.90,0.0,1020.09,347.4
2018-04-13 04:40,50.63044,-96.98076,7.7,10.7,333,991.44,-8.0,42,2.89,0.0,1020.20,347.4
2018-04-13 04:50,50.63044,-96.9807633333333,9.5,12.6,341,991.44,-8.1,42,2.89,0.0,1020.19,347.4
2018-04-13 05:00,50.6304366666667,-96.9807633333333,11.1,14.5,347,991.40,-8.2,44,2.88,0.0,1020.17,216.6
2018-04-13 05:10,50.6304366666667,-96.9807633333333,10.4,14.4,346,991.49,-8.4,44,2.88,0.0,1020.26,216.6
2018-04-13 05:20,50.6304133333333,-96.98076,8.2,14.0,339,991.67,-8.5,42,2.88,0.0,1020.46,216.6
2018-04-13 05:30,50.6304266666667,-96.98077,6.5,10.6,335,991.91,-8.4,40,2.88,0.0,1020.72,216.6
2018-04-13 05:40,50.6304416666667,-96.9807516666667,9.3,12.7,346,991.81,-8.3,42,2.87,0.0,1020.63,216.6
2018-04-13 05:50,50.6304383333333,-96.9807583333333,9.7,13.0,346,991.90,-8.2,40,2.87,0.0,1020.72,216.6
2018-04-13 06:00,50.6304383333333,-96.980755,9.6,13.0,347,991.93,-8.0,40,2.87,0.0,1020.75,90.0
2018-04-13 06:10,50.6304366666667,-96.980755,10.9,13.9,346,991.87,-7.9,39,2.87,0.0,1020.69,90.0
2018-04-13 06:20,50.6304366666667,-96.9807566666667,10.8,15.3,347,991.93,-7.8,39,2.86,0.0,1020.75,90.0
2018-04-13 06:30,50.6304383333333,-96.9807566666667,9.2,13.9,348,992.17,-7.9,40,2.86,0.0,1021.00,90.0
2018-04-13 06:40,50.6304433333333,-96.9807516666667,9.2,13.1,345,992.23,-7.8,40,2.86,0.0,1021.06,90.0
2018-04-13 06:50,50.6304383333333,-96.9807566666667,11.3,15.2,351,992.16,-7.9,42,2.85,0.0,1021.01,90.0
2018-04-13 07:00,50.6304383333333,-96.9807616666667,10.4,13.7,355,992.40,-8.3,44,2.84,0.0,1021.28,0.0
2018-04-13 07:10,50.6304416666667,-96.9807533333333,9.1,12.3,9,992.71,-8.6,47,2.84,0.0,1021.62,0.0
2018-04-13 07:20,50.6304433333333,-96.9807533333333,8.2,10.6,17,992.93,-8.9,53,2.82,0.0,1021.86,0.0
2018-04-13 07:30,50.6304416666667,-96.9807533333333,8.6,11.0,16,993.00,-9.2,56,2.82,0.0,1021.95,0.0
2018-04-13 07:40,50.63044,-96.9807533333333,9.1,12.5,11,993.07,-9.4,55,2.82,0.0,1022.02,0.0
2018-04-13 07:50,50.6304383333333,-96.9807533333333,10.7,13.3,9,993.08,-9.4,53,2.81,0.0,1022.03,0.0
2018-04-13 08:00,50.6304383333333,-96.9807533333333,10.8,13.8,9,993.25,-9.5,52,2.81,0.0,1022.20,54.7
2018-04-13 08:10,50.6304316666667,-96.9807483333333,9.6,12.3,7,993.34,-9.7,52,2.80,0.0,1022.30,54.7
2018-04-13 08:20,50.6304316666667,-96.9807516666667,10.5,13.3,6,993.18,-9.8,51,2.80,0.0,1022.14,54.7
2018-04-13 08:30,50.6304366666667,-96.9807583333333,11.9,15.7,5,993.07,-9.9,52,2.79,0.0,1022.03,54.7
2018-04-13 08:40,50.630435,-96.9807583333333,13.3,16.4,4,993.01,-10.0,54,2.79,0.0,1021.98,54.7
2018-04-13 08:50,50.630435,-96.9807583333333,13.4,16.6,5,992.97,-10.2,55,2.78,0.0,1021.96,54.7
2018-04-13 09:00,50.630435,-96.9807566666667,14.1,17.4,7,992.89,-10.3,56,2.78,0.0,1021.91,360.0
2018-04-13 09:10,50.630435,-96.9807566666667,13.9,17.9,6,993.02,-10.3,56,2.77,0.0,1022.06,360.0
2018-04-13 09:20,50.6304366666667,-96.9807566666667,14.8,19.5,9,993.06,-10.4,57,2.77,0.0,1022.13,360.0
2018-04-13 09:30,50.63043,-96.9807666666667,15.3,19.0,9,993.10,-10.6,57,2.77,0.0,1022.19,360.0
2018-04-13 09:40,50.63043,-96.9807616666667,15.4,19.4,8,993.23,-10.7,58,2.76,0.0,1022.33,360.0
2018-04-13 09:50,50.6304383333333,-96.9807616666667,16.0,19.8,8,993.32,-10.9,59,2.76,0.0,1022.44,360.0
2018-04-13 10:00,50.6304383333333,-96.98076,15.3,18.8,7,993.47,-11.1,59,2.75,0.0,1022.62,0.0
2018-04-13 10:10,50.6304366666667,-96.98076,14.9,19.9,8,993.66,-11.3,60,2.75,0.0,1022.83,0.0
2018-04-13 10:20,50.6304366666667,-96.98076,14.4,17.6,9,993.93,-11.4,61,2.74,0.0,1023.11,0.0
2018-04-13 10:30,50.6304366666667,-96.98076,14.2,18.7,9,994.25,-11.5,61,2.74,0.0,1023.46,0.0
2018-04-13 10:40,50.6304366666667,-96.98076,13.3,17.5,5,994.54,-11.5,61,2.74,0.0,1023.77,0.0
2018-04-13 10:50,50.6304366666667,-96.98076,11.4,14.9,4,994.84,-11.6,61,2.73,0.0,1024.08,0.0
2018-04-13 11:00,50.6304366666667,-96.9807583333333,11.2,13.6,7,994.99,-11.6,61,2.73,0.0,1024.25,192.6
2018-04-13 11:10,50.6304366666667,-96.9807566666667,12.0,16.2,8,995.00,-11.7,62,2.72,0.0,1024.27,192.6
2018-04-13 11:20,50.6304366666667,-96.9807566666667,12.9,16.1,8,994.97,-11.8,63,2.72,0.0,1024.25,192.6
2018-04-13 11:30,50.6304366666667,-96.9807566666667,12.2,16.1,9,995.06,-11.9,64,2.71,0.0,1024.35,192.6
2018-04-13 11:40,50.6304366666667,-96.9807566666667,9.8,13.1,9,995.44,-12.0,64,2.71,0.0,1024.76,192.6
2018-04-13 11:50,50.6304366666667,-96.980755,9.3,12.1,8,995.70,-12.0,64,2.70,0.0,1025.04,192.6
2018-04-13 12:00,50.630405,-96.9807583333333,9.4,12.0,5,995.78,-12.0,65,2.70,0.0,1025.13,360.0
2018-04-13 12:10,50.6304416666667,-96.9807566666667,10.0,11.9,10,995.87,-12.0,64,2.69,0.0,1025.23,360.0
2018-04-13 12:20,50.6304016666667,-96.9807533333333,10.1,13.3,10,995.94,-11.9,65,2.69,0.0,1025.31,360.0
2018-04-13 12:30,50.6304166666667,-96.980745,9.2,11.3,10,996.11,-11.9,65,2.68,0.0,1025.49,360.0
2018-04-13 12:40,50.6304316666667,-96.98075,9.9,12.8,12,996.38,-11.8,63,2.67,0.0,1025.76,360.0
2018-04-13 12:50,50.6304333333333,-96.9807516666667,9.3,12.2,9,996.71,-11.7,62,2.67,0.0,1026.09,360.0
2018-04-13 13:00,50.6304316666667,-96.98075,9.5,11.0,8,996.79,-11.7,62,2.67,0.0,1026.18,165.5
2018-04-13 13:10,50.6304333333333,-96.98075,10.0,12.0,10,996.60,-11.8,63,2.65,0.0,1026.00,165.5
2018-04-13 13:20,50.6304316666667,-96.9807533333333,9.4,11.7,10,996.77,-11.7,63,2.63,0.0,1026.17,165.5
2018-04-13 13:30,50.6304316666667,-96.9807533333333,9.6,11.7,11,996.75,-11.6,63,2.62,0.0,1026.15,165.5
2018-04-13 13:40,50.6304316666667,-96.9807533333333,9.9,11.7,10,996.77,-11.6,63,2.62,0.0,1026.17,165.5
2018-04-13 13:50,50.6304316666667,-96.980755,10.0,12.6,10,996.83,-11.5,63,2.62,0.0,1026.23,165.5
2018-04-13 14:00,50.63043,-96.9807533333333,11.0,14.3,9,997.04,-11.3,62,2.62,0.0,1026.42,165.5
2018-04-13 14:10,50.63043,-96.9807533333333,12.0,15.2,10,997.12,-11.1,61,2.62,0.0,1026.49,165.5
2018-04-13 14:20,50.63043,-96.9807533333333,11.8,14.1,12,997.28,-10.9,62,2.62,0.0,1026.66,165.5
2018-04-13 14:30,50.63043,-96.9807533333333,11.6,13.7,15,997.34,-10.8,63,2.62,0.0,1026.70,165.5
2018-04-13 14:40,50.63043,-96.9807533333333,11.0,13.3,16,997.60,-10.7,63,2.61,0.0,1026.96,165.5
2018-04-13 14:50,50.63043,-96.980755,11.5,13.4,17,997.90,-10.5,63,2.61,0.0,1027.26,165.5
2018-04-13 15:00,50.6304433333333,-96.9807616666667,11.3,13.3,16,998.14,-10.4,65,2.61,0.0,1027.50,360.0
2018-04-13 15:10,50.6304433333333,-96.98076,11.4,13.3,16,998.32,-10.1,65,2.61,0.0,1027.67,360.0
2018-04-13 15:20,50.6304233333333,-96.9807533333333,11.6,13.4,18,998.47,-9.7,65,2.62,0.0,1027.78,360.0
2018-04-13 15:30,50.630425,-96.9807616666667,11.2,12.8,16,998.69,-9.4,63,2.62,0.0,1028.00,360.0
2018-04-13 15:40,50.6304316666667,-96.9807616666667,10.5,12.4,14,998.84,-8.9,62,2.62,0.0,1028.12,360.0
2018-04-13 15:50,50.6304333333333,-96.9807633333333,9.4,12.5,13,999.09,-8.4,61,2.62,0.0,1028.34,360.0
2018-04-13 16:00,50.630435,-96.9807633333333,10.2,12.8,13,999.22,-8.0,56,2.61,0.0,1028.44,299.2
2018-04-13 16:10,50.630445,-96.98081,11.8,13.7,16,999.32,-7.7,57,2.61,0.0,1028.52,299.2
2018-04-13 16:20,50.63044,-96.9807616666667,11.2,12.9,17,999.63,-7.6,56,2.61,0.0,1028.82,299.2
2018-04-13 16:30,50.63044,-96.9807583333333,11.2,13.3,16,999.80,-7.2,54,2.61,0.0,1028.96,299.2
2018-04-13 16:40,50.6304416666667,-96.98076,10.9,13.5,14,999.99,-6.8,52,2.62,0.0,1029.13,299.2
2018-04-13 16:50,50.6304416666667,-96.9807583333333,10.9,13.4,12,1000.13,-6.5,49,2.62,0.0,1029.26,299.2
2018-04-13 17:00,50.6304333333333,-96.9807683333333,10.6,13.5,17,1000.26,-6.3,49,2.62,0.0,1029.36,305.3
2018-04-13 17:10,50.6304383333333,-96.98076,11.4,14.9,18,1000.15,-6.1,48,2.62,0.0,1029.20,305.3
2018-04-13 17:20,50.63044,-96.9807516666667,12.0,15.3,14,1000.10,-5.9,46,2.63,0.0,1029.12,305.3
2018-04-13 17:30,50.63044,-96.9807583333333,12.2,15.7,15,1000.14,-5.6,48,2.63,0.0,1029.13,305.3
2018-04-13 17:40,50.6304416666667,-96.980755,13.0,15.7,14,1000.21,-5.5,48,2.63,0.0,1029.16,305.3
2018-04-13 17:50,50.6304416666667,-96.980755,12.6,16.3,9,1000.32,-5.2,46,2.64,0.0,1029.25,305.3
2018-04-13 18:00,50.63044,-96.9807533333333,13.0,16.2,7,1000.31,-5.2,45,2.65,0.0,1029.21,90.0
2018-04-13 18:10,50.63044,-96.9807533333333,13.0,17.4,5,1000.38,-4.9,45,2.65,0.0,1029.27,90.0
2018-04-13 18:20,50.63044,-96.9807533333333,12.7,16.4,5,1000.45,-4.7,41,2.66,0.0,1029.31,90.0
2018-04-13 18:30,50.63044,-96.980755,12.0,17.4,0,1000.48,-4.5,41,2.67,0.0,1029.30,90.0
2018-04-13 18:40,50.63045,-96.9807666666667,12.8,16.5,2,1000.45,-4.5,39,2.67,0.0,1029.25,90.0
2018-04-13 18:50,50.6304433333333,-96.9807633333333,12.4,16.2,6,1000.44,-4.3,41,2.68,0.0,1029.22,90.0
2018-04-13 19:00,50.630445,-96.980765,13.0,16.6,5,1000.51,-4.0,40,2.69,0.0,1029.27,38.0
2018-04-13 19:10,50.6304433333333,-96.980765,13.0,17.1,9,1000.55,-3.9,40,2.70,0.0,1029.29,38.0
2018-04-13 19:20,50.6304433333333,-96.9807616666667,14.0,17.8,8,1000.58,-3.8,41,2.70,0.0,1029.30,38.0
2018-04-13 19:30,50.6304433333333,-96.9807616666667,14.1,17.3,10,1000.53,-3.7,41,2.71,0.0,1029.24,38.0
2018-04-13 19:40,50.6304416666667,-96.9807633333333,14.3,17.7,10,1000.66,-3.5,42,2.72,0.0,1029.35,38.0
2018-04-13 19:50,50.6304416666667,-96.9807616666667,14.6,17.3,15,1000.86,-3.5,41,2.72,0.0,1029.54,38.0
2018-04-13 20:00,50.63044,-96.98076,13.6,18.2,12,1000.92,-3.2,43,2.73,0.0,1029.59,14.5
2018-04-13 20:10,50.63044,-96.98076,14.5,18.3,13,1000.99,-3.0,42,2.74,0.0,1029.63,14.5
2018-04-13 20:20,50.6304383333333,-96.9807583333333,15.4,18.8,12,1000.91,-3.0,42,2.74,0.0,1029.54,14.5
2018-04-13 20:30,50.6304383333333,-96.9807583333333,15.5,19.0,13,1000.98,-2.8,43,2.75,0.0,1029.60,14.5
2018-04-13 20:40,50.63044,-96.980765,15.4,18.7,12,1001.00,-2.6,42,2.76,0.0,1029.60,14.5
2018-04-13 20:50,50.63043,-96.9807666666667,16.0,18.8,14,1000.92,-2.6,43,2.77,0.0,1029.50,14.5
2018-04-13 21:00,50.63043,-96.980765,15.3,19.1,13,1000.91,-2.6,43,2.77,0.0,1029.49,183.2
2018-04-13 21:10,50.630435,-96.9807683333333,15.0,19.1,15,1000.92,-2.4,46,2.78,0.0,1029.48,183.2
2018-04-13 21:20,50.63043,-96.980755,15.9,19.1,15,1000.84,-2.2,45,2.78,0.0,1029.38,183.2
2018-04-13 21:30,50.6304316666667,-96.9807516666667,15.1,19.4,14,1001.00,-2.2,45,2.79,0.0,1029.53,183.2
2018-04-13 21:40,50.6304333333333,-96.9807516666667,15.4,19.2,13,1001.03,-2.1,44,2.80,0.0,1029.56,183.2
2018-04-13 21:50,50.6304333333333,-96.9807483333333,15.4,18.0,13,1001.04,-2.1,44,2.81,0.0,1029.55,183.2
2018-04-13 22:00,50.6304316666667,-96.9807483333333,14.8,18.7,11,1001.02,-2.0,42,2.82,0.0,1029.52,131.7
2018-04-13 22:10,50.63043,-96.98075,13.7,16.8,14,1001.26,-1.8,46,2.84,0.0,1029.76,131.7
2018-04-13 22:20,50.6304316666667,-96.9807516666667,13.5,16.0,12,1001.26,-1.7,41,2.85,0.0,1029.74,131.7
2018-04-13 22:30,50.6304316666667,-96.9807516666667,12.7,15.5,11,1001.33,-1.6,43,2.85,0.0,1029.80,131.7
2018-04-13 22:40,50.6304316666667,-96.9807516666667,12.5,16.6,9,1001.49,-1.5,42,2.86,0.0,1029.96,131.7
2018-04-13 22:50,50.6304316666667,-96.9807516666667,12.1,14.8,10,1001.46,-1.5,43,2.87,0.0,1029.93,131.7
2018-04-13 23:00,50.6304333333333,-96.9807516666667,11.2,14.1,12,1001.56,-1.4,44,2.88,0.0,1030.01,165.5
2018-04-13 23:10,50.6304333333333,-96.9807516666667,12.0,15.0,10,1001.51,-1.5,44,2.89,0.0,1029.96,165.5
2018-04-13 23:20,50.6304333333333,-96.9807516666667,11.7,14.2,9,1001.57,-1.5,44,2.89,0.0,1030.02,165.5
2018-04-13 23:30,50.6304333333333,-96.9807533333333,12.0,14.9,12,1001.69,-1.5,46,2.90,0.0,1030.13,165.5
